FLOCK 4Y 34

导读 | 星芒AI

FLOCK 4Y 34 是由 Planet Labs 运营的 Dove 卫星之一,属于其 Flock 系列地球观测卫星。该卫星主要用于高分辨率光学成像,支持全球范围内的日常对地观测任务。它运行在低地球轨道,能够提供多光谱图像,广泛应用于环境监测、农业、灾害评估和城市规划等领域。Flock 系列卫星以其高重访率和成本效益著称,为用户提供频繁、实时的地球影像数据。

基本信息
目录编号:
55082
目录名称:
FLOCK 4Y 34
国际标识:
2023-001CB
轨道中心:
EARTH
卫星名称:
FLOCK 4Y 34
卫星全名:
--
卫星状态:
已陨落 最后检测时间 2025-08-03
发射日期:
2023-01-03 UTC
国别 :
美国 (US)
星等 :
--
轨道信息
数据来源 国际轨道数据
星历时间: 2025-08-03T11:17:22+0800
轨道信息已过期80天
半长轴: 6524.624km
偏心率: 0.0018159
轨道倾角: 97.331°
近地点辐角 257.548°
升交点赤经 292.671°
平近点角 102.379°
近地点: 134.64km
远地点: 158.338km
周期: 87.416分钟
每日圈数: 16.472882
详细信息
使用方式:
暂无